Location: G�rard
(48.1418°N, 1.2472°W)
Time: 12:34:39
(UTC+00:00)

Daily predictions for brighter satellites

Satellite Brightness Start Highest point End
(mag) Time Altitude Azimuth Time Altitude Azimuth Time Altitude Azimuth
BREEZE-M DEB (TANK) 4.3 19:57:51 10° WNW 20:02:34 90° NE 20:21:51 10° ESE
SPOT 3 Rocket 4.1 19:58:21 10° SE 20:03:12 43° ENE 20:08:02 10° N
COSMOS 2406 4.3 19:59:38 10° NNW 20:04:43 32° NE 20:09:47 10° ESE
Cosmos 2084 4.4 20:02:37 10° S 20:06:00 25° ESE 20:09:28 10° ENE
USA 290 2.2 20:04:09 10° NNW 20:07:24 89° NE 20:10:38 10° SSE
Resurs 01 Rocket 2.1 20:03:30 10° SE 20:07:45 46° ENE 20:12:01 10° N
Meteor 1-20 Rocket 4.3 20:04:20 10° N 20:09:57 70° ENE 20:15:27 10° SSE
USA 186 3.5 20:08:22 10° SSW 20:10:26 23° W 20:12:25 10° NW
Cosmos 1933 3.5 20:09:54 10° S 20:13:51 55° E 20:17:48 10° NNE
Cosmos 773 Rocket 4.5 20:12:14 10° NNW 20:17:24 49° ENE 20:22:31 10° SE
ERS-2 3.8 20:20:10 10° N 20:23:34 37° WNW 20:26:56 10° SW
Cosmos 1606 4.0 20:21:04 10° SSW 20:24:40 43° WNW 20:28:19 10° N
Cosmos 2278 Rocket 3.3 20:20:13 10° SSE 20:24:40 24° ESE 20:29:07 10° NE
BREEZE-M DEB (TANK) 1.6 20:22:40 10° W 20:25:18 60° N 20:27:18 10° E
Cosmos 1602 3.9 20:21:33 10° N 20:25:23 58° ENE 20:29:13 10° SSE
Spot 2 Rocket 4.4 20:22:13 10° SE 20:26:41 33° ENE 20:31:09 10° N
USA 305 3.6 20:22:31 10° WNW 20:26:42 51° NNE 20:30:52 10° E
Cosmos 1782 3.2 20:23:46 10° SSE 20:27:33 42° E 20:31:21 10° NNE
Landsat 7 4.0 20:23:31 10° SSE 20:28:10 58° ENE 20:32:52 10° N
Cosmos 1844 Rocket 3.2 20:23:07 10° SW 20:28:40 66° WNW 20:34:15 10° NNE
IGS 5A 3.5 20:25:00 10° SSE 20:29:05 64° ENE 20:33:13 10° N
Cosmos 1242 Rocket 2.4 20:26:30 10° S 20:30:04 75° E 20:33:37 10° NNE
BREEZE-M DEB (TANK) 4.2 20:22:28 10° WNW 20:32:39 49° SW 20:35:39 12° SE
Cosmos 1805 Rocket 4.4 20:28:44 10° NNW 20:32:57 51° W 20:37:11 10° S
ERS-1 Rocket 4.2 20:30:20 10° ESE 20:34:23 27° ENE 20:38:32 10° N
CZ-4C R/B 3.1 20:29:05 10° NW 20:36:08 71° NE 20:43:47 13° SE
BREEZE M DEB (TANK) 4.3 20:34:29 10° W 20:38:31 86° N 20:53:00 10° E
Cosmos 1633 Rocket 3.1 20:34:48 10° N 20:39:13 72° E 20:43:36 10° SSE
Akebono 4.4 20:40:33 10° N 20:42:50 44° ENE 20:43:57 21° SE
ATLAS 5 CENTAUR R/B 2.8 20:40:03 10° NW 20:45:33 56° SW 20:51:47 11° SSE
USA 306 3.3 20:41:51 10° WNW 20:46:04 60° NNE 20:49:58 12° ESE
Cosmos 1328 Rocket 3.6 20:45:38 10° S 20:49:59 62° E 20:54:22 10° NNE
Cosmos 1812 3.5 20:47:18 15° SSE 20:50:02 34° E 20:53:34 10° NNE
Cosmos 1503 Rocket 4.2 20:45:03 10° SSW 20:50:13 74° WNW 20:55:28 10° NNE
Cosmos 1470 Rocket 3.8 20:47:03 10° N 20:51:29 56° ENE 20:55:01 16° SSE
Cosmos 1777 Rocket 4.2 20:46:32 10° S 20:51:31 49° ESE 20:56:32 10° NNE
ARIANE 5 R/B 3.0 20:52:22 16° SE 20:55:32 48° ENE 20:59:43 10° N
Ariane Rocket 4.3 20:53:19 10° SSW 20:57:58 37° W 21:02:40 10° NNW
Cosmos 1666 3.5 20:55:01 10° N 20:58:29 35° ENE 21:00:29 20° SE
CRYOSAT 2 4.3 20:53:55 10° S 20:58:43 80° E 21:03:38 10° N
CARTOSAT-1 4.0 20:56:42 18° SE 20:59:42 48° ENE 21:03:53 10° N
Cosmos 1833 Rocket 2.7 20:57:09 10° NNW 21:02:51 76° ENE 21:07:04 18° SE
Meteor 1-5 Rocket 4.2 20:59:04 10° N 21:04:27 63° ENE 21:08:22 18° SSE
BREEZE-M R/B 1.7 21:02:41 10° W 21:05:10 81° NNW 21:07:47 10° ENE
Cosmos 1933 Rocket 3.8 21:01:29 10° N 21:05:44 51° ENE 21:08:25 21° SE
Cosmos 1437 2.3 21:05:01 13° SSW 21:07:25 86° W 21:10:17 10° N
Cosmos 1666 Rocket 4.4 21:03:19 10° NNW 21:07:34 49° W 21:11:45 10° SSW
Cosmos 1536 4.4 21:05:43 10° NNE 21:08:53 21° ENE 21:10:33 17° ESE
Cosmos 1709 Rocket 4.3 21:03:37 10° NNW 21:09:39 65° W 21:15:41 10° S
USA 307 3.0 21:08:28 10° WNW 21:12:46 77° NNE 21:15:38 20° ESE
Cosmos 2184 Rocket 4.2 21:07:10 10° N 21:13:18 55° ENE 21:17:32 20° SSE
CZ-2C R/B 3.7 21:10:41 10° NNE 21:15:11 84° WNW 21:19:44 10° SSW
Cosmos 2074 Rocket 4.1 21:11:35 10° N 21:17:51 62° ENE 21:22:14 20° SSE
NOSS 3-4 (A) 4.0 21:11:31 10° NW 21:18:23 70° NE 21:24:06 19° SE
NOSS 3-4 (C) 4.0 21:11:38 10° NW 21:18:29 70° NE 21:24:13 19° SE
JB-3 4.4 21:16:00 10° NNE 21:19:50 55° E 21:21:59 24° S
USA 245 2.4 21:20:53 36° SSW 21:21:29 52° WSW 21:23:43 10° NNW
SJ 16-02 1.6 21:19:30 19° S 21:22:27 50° ESE 21:26:46 10° NNE
USA 308 2.9 21:22:04 10° WNW 21:26:23 89° NNE 21:28:43 26° ESE
SPOT 1/Viking Rocket 3.9 21:23:33 15° S 21:27:51 61° WSW 21:33:00 10° NNW
NOSS 3-3 (A) 4.1 21:22:15 10° SW 21:28:03 77° NW 21:34:47 10° NE
NOSS 3-3 (C) 4.1 21:22:20 10° SW 21:28:10 77° NW 21:34:53 10° NE
Cosmos 1500 3.9 21:24:47 10° NNW 21:28:27 49° W 21:30:59 18° SSW
ATLAS 2AS CENTAUR R/B 3.3 21:24:31 10° NW 21:31:53 56° NE 21:37:04 18° ESE
Iridium 4 Rocket 3.8 21:30:59 19° S 21:35:11 76° E 21:41:07 10° N
Terra 2.0 21:33:01 27° SE 21:35:27 59° ENE 21:40:09 10° N
CREW DRAGON DEMO-1 DEB 2.4 21:33:14 10° WNW 21:35:52 63° SSW 21:35:56 62° SSW
Cosmos 1544 4.3 21:33:11 10° NNE 21:36:17 26° ENE 21:37:03 24° E
X-37B 2.8 21:35:17 10° WSW 21:36:59 15° SW 21:36:59 15° SW
USA 215 4.4 21:31:58 10° ENE 21:38:01 42° N 21:44:03 10° WNW
ERBS 4.5 21:37:47 10° NW 21:40:28 22° NNE 21:43:09 10° ENE
SPOT 5 3.0 21:38:33 26° SSE 21:41:33 90° WSW 21:46:53 10° NNW
Cosmos 2082 Rocket 2.2 21:37:10 10° NNW 21:42:49 80° ENE 21:45:50 29° SE
Resurs 01 Rocket 3.8 21:41:05 10° SW 21:44:28 21° W 21:47:52 10° NW
Cosmos 158 Rocket 3.8 21:39:35 10° NNW 21:44:30 85° ENE 21:46:51 31° SSE
Cosmos 2084 4.4 21:41:13 10° WSW 21:45:15 49° NW 21:49:25 10° NE
Cosmos 2228 Rocket 3.1 21:45:34 33° SSE 21:47:24 60° E 21:51:49 10° NNE
Cosmos 44 4.2 21:43:38 10° NNW 21:48:55 47° NE 21:51:59 23° ESE
COSMOS 2406 3.8 21:43:48 10° NW 21:49:17 51° WSW 21:52:38 23° S
Cosmos 1271 Rocket 2.8 21:54:20 28° SSW 21:56:21 78° WNW 22:00:23 10° N
BREEZE-M DEB (TANK) 4.1 21:51:24 10° W 22:00:14 54° NNW 22:03:05 10° ENE
Meteor 1-27 Rocket 3.8 21:58:45 28° S 22:01:57 71° E 22:07:51 10° NNE
CZ-4B DEB 4.3 22:04:46 59° SSW 22:05:11 69° WSW 22:08:24 10° NNW
USA 305 3.2 22:02:33 10° WNW 22:06:41 49° SW 22:07:27 43° S
Cosmos 1295 Rocket 4.5 22:01:54 10° N 22:08:18 81° E 22:11:29 32° SSE
Cosmos 2278 Rocket 2.7 22:02:43 10° SW 22:08:18 60° WNW 22:13:56 10° NNE
Milstar 3 4.4 22:00:58 10° SW 22:09:48 23° S 22:10:46 23° S
Cosmos 1937 Rocket 4.1 22:09:31 33° ESE 22:10:15 35° ESE 22:14:55 10° NE
SL-24 R/B - RUBIN 2 4.1 22:05:26 10° NW 22:11:01 66° NE 22:13:07 34° ESE
Cosmos 1680 Rocket 3.5 22:07:27 10° NNW 22:12:49 82° ENE 22:14:52 39° SSE
ERS-1 Rocket 3.6 22:10:19 25° SSW 22:12:56 47° W 22:17:49 10° NNW
Cosmos 1869 Rocket 3.6 22:10:23 10° NNW 22:14:42 71° W 22:16:04 42° SSW
Cosmos 1943 Rocket 2.9 22:13:54 32° SE 22:14:45 34° ESE 22:19:46 10° NE
Centaur D AC-29 4.5 21:17:58 10° SW 22:15:54 28° SSW 22:20:13 24° SSE
Cosmos 2369 Rocket 3.6 22:17:10 20° E 22:17:12 20° E 22:21:08 10° NE
Gbstr 26 Del rocket 4.3 22:11:06 10° WNW 22:18:43 76° NNE 22:23:48 17° E
Cosmos 1238 Rocket 4.1 22:17:08 10° N 22:23:15 54° ENE 22:25:13 37° SE
CZ-4C R/B 3.9 22:17:57 10° NW 22:24:35 36° WSW 22:28:58 22° SSW
USA 306 3.6 22:21:58 10° WNW 22:25:55 37° SW 22:26:02 37° SW
Meteor 1-11 Rocket 4.3 22:21:33 10° NNW 22:27:22 54° W 22:30:24 27° SSW
Okean 1 3.8 22:29:36 42° E 22:29:36 42° E 22:33:21 10° NNE
Cosmos 1340 Rocket 2.8 22:26:19 10° NNW 22:30:25 81° W 22:31:03 62° S
Cosmos 1818 3.8 22:26:31 10° NW 22:32:00 66° NE 22:34:12 36° ESE
Cosmos 1707 Rocket 3.4 22:32:59 58° SSE 22:33:48 79° E 22:38:13 10° NNE
DNEPR-1 R/B 4.3 22:34:46 43° SSE 22:35:52 49° ESE 22:40:44 10° NE
SL-8 Rocket 4.1 22:32:50 10° N 22:39:10 69° E 22:41:32 40° SSE
ALOS 2 3.7 22:41:06 29° E 22:42:02 32° ENE 22:45:57 10° N
Cosmos 1536 3.9 22:41:40 10° NNW 22:45:24 36° W 22:46:16 32° WSW
Cosmos 1743 2.9 22:45:29 10° NNW 22:49:16 58° W 22:49:32 57° WSW
Cosmos 1898 Rocket 3.5 22:47:29 38° SSW 22:49:36 84° WNW 22:54:59 10° NNE
USA 307 4.4 22:48:52 10° WNW 22:51:43 25° WSW 22:51:43 25° WSW
Cosmos 1975 2.9 22:56:30 10° N 23:00:28 61° ENE 23:00:29 61° E
SJ 16-02 3.7 22:57:54 10° WSW 23:01:19 21° NW 23:04:46 10° N
RESURS DK-1 3.8 22:58:40 10° NNW 23:02:24 30° NE 23:03:31 26° E
Cosmos 1733 Rocket 3.1 23:00:10 10° NNW 23:04:28 64° W 23:04:54 60° SW
Cosmos 864 Rocket 4.4 23:00:22 10° N 23:06:34 84° E 23:08:29 47° SSE
Cosmos 1461 3.3 23:07:22 54° ESE 23:07:22 54° ESE 23:11:39 10° NE
Cosmos 2297 3.8 23:04:38 34° SW 23:07:15 77° WNW 23:12:57 10° NNE
Cosmos 372 Rocket 3.9 23:07:02 56° SE 23:07:36 60° ESE 23:12:37 10° NNE
Cosmos 2242 Rocket 4.3 23:09:01 38° E 23:09:01 38° E 23:13:09 10° NNE
SeaSat 1 4.3 23:06:01 10° ENE 23:08:32 17° E 23:08:32 17° E
Cosmos 1959 Rocket 4.4 23:03:03 10° N 23:09:19 90° NW 23:11:16 47° S
Cosmos 1900 4.4 23:09:19 38° SW 23:11:16 77° NW 23:16:21 10° NE
Terra 3.8 23:11:54 16° WSW 23:13:35 19° W 23:16:57 10° NW
ERBS 3.4 23:13:41 10° NW 23:16:00 42° NW 23:16:00 42° NW
Meteor 1-18 Rocket 4.1 23:16:27 51° S 23:17:58 90° S 23:23:36 10° NNE
Cosmos 1908 Rocket 3.5 23:14:53 10° N 23:19:23 70° E 23:19:43 67° ESE
USA 215 3.6 23:14:02 10° ESE 23:20:27 64° NNE 23:26:55 10° NW
ATLAS 2AS CENTAUR R/B 3.2 23:15:54 10° NW 23:22:42 43° WSW 23:24:29 37° SSW
Cosmos 1867 4.1 23:25:56 42° ESE 23:25:56 42° ESE 23:31:01 10° NE
Cosmos 2082 Rocket 4.0 23:22:35 10° WNW 23:26:11 18° W 23:27:41 16° WSW
Cosmos 1125 Rocket 4.5 23:26:49 31° ESE 23:26:57 31° E 23:31:31 10° NE
Cosmos 44 4.3 23:25:11 10° NW 23:30:05 36° WSW 23:30:23 36° WSW
Cosmos 2181 Rocket 4.2 23:29:26 39° SW 23:31:44 64° WNW 23:37:50 10° N
SAR-Lupe-2 4.2 23:30:06 10° NNE 23:32:57 50° NE 23:32:57 50° NE
Spot 4 4.3 23:34:25 46° SW 23:35:02 49° W 23:39:46 10° NNW
Cosmos 2084 Rocket 4.4 23:32:25 10° NW 23:35:44 37° W 23:35:44 37° W
ATLAS CENTAUR R/B 3.2 23:38:29 18° ENE 23:38:29 18° ENE 23:39:50 10° ENE
Cosmos 2344 4.4 23:29:11 10° NW 23:38:08 71° NE 23:50:34 10° SE
Cosmos 2366 rocket 4.3 23:32:44 10° NNW 23:38:46 56° W 23:40:37 41° SW
Cosmos 1821 Rocket 4.1 23:33:01 10° N 23:39:26 72° E 23:41:25 46° SSE
Cosmos 1703 Rocket 3.4 23:48:52 87° SSW 23:48:57 90° NW 23:53:24 10° N
Okean 3 4.0 23:50:46 48° E 23:50:46 48° E 23:54:42 10° NNE
Cosmos 1782 Rocket 3.4 23:46:44 10° N 23:51:13 83° E 23:51:22 81° ESE
Lacrosse 5 3.9 23:54:51 15° E 23:54:51 15° E 23:56:28 10° E
